• Join FlightAware (Why Join?)
  • Login
  • US Flag 
08:38PM EDT


 

Airport Tracker/Info


-or-


 

Live Flight TrackerFlight Track Log ✈ LXJ437 ✈ 26-Jun-2013 ✈ KFNT - KIAD

Flight Track Log - Related Links

Times and Time Zones

All times are in EDT time to prevent confusion due to time zone crossing. See the LXJ437 flight status page for this flight to view local times or setup timezone preferences in your user account.

Time Position Orientation Groundspeed Altitude Reporting Facility
EDT Latitude Longitude Course Direction KTS MPH feet Rate Location/Type
12:09PM 42.9675 -83.8067 358° North 196 226 2,600  Level Cleveland Center
12:10PM 43.0069 -83.8086 358° North 252 290 5,700 2,820 Climbing Cleveland Center
12:11PM 43.0406 -83.7222 62° Northeast 261 300 8,300 3,120 Climbing Cleveland Center
12:12PM 43.0706 -83.6128 69° East 275 316 12,000 3,000 Climbing Cleveland Center
12:13PM 43.0989 -83.4833 73° East 316 364 14,300 1,860 Climbing Cleveland Center
12:14PM 43.0222 -83.3889 138° Southeast 295 339 15,800 1,320 Climbing Cleveland Center
12:15PM 42.9011 -83.3978 183° South 316 364 17,000 1,620 Climbing Cleveland Center
12:16PM 42.7842 -83.4067 183° South 352 405 19,100 2,520 Climbing Cleveland Center
12:17PM 42.6672 -83.4153 183° South 395 455 22,100 2,220 Climbing Cleveland Center
12:19PM 42.4103 -83.4319 183° South 462 532 25,900 2,220 Climbing Cleveland Center
12:20PM 42.2808 -83.4431 184° South 478 550 28,800 2,520 Climbing Cleveland Center
12:21PM 42.1597 -83.4517 183° South 461 531 31,000 1,500 Climbing Cleveland Center
12:22PM 42.0333 -83.4122 167° South 461 531 31,800 1,500 Climbing Cleveland Center
12:23PM 41.9428 -83.2856 134° Southeast 456 525 34,000 1,080 Climbing Cleveland Center
12:24PM 41.8792 -83.1461 121° Southeast 473 544 34,000  Level Cleveland Center
12:25PM 41.7972 -82.9869 125° Southeast 495 570 34,000  Level Cleveland Center
12:26PM 41.7169 -82.8308 125° Southeast 502 578 34,000  Level Cleveland Center
12:27PM 41.6383 -82.6864 126° Southeast 507 583 34,000  Level Cleveland Center
12:28PM 41.5575 -82.5367 126° Southeast 502 578 34,000 240 Level Cleveland Center
12:29PM 41.4789 -82.3875 125° Southeast 502 578 34,500 900 Climbing Cleveland Center
12:30PM 41.3975 -82.2411 127° Southeast 494 568 35,900 1,380 Climbing Cleveland Center
12:31PM 41.2994 -82.0950 132° Southeast 487 560 37,300 1,380 Climbing Cleveland Center
12:32PM 41.2053 -81.9686 135° Southeast 482 555 38,700 1,380 Climbing Cleveland Center
12:33PM 41.1147 -81.8592 138° Southeast 476 548 40,100 1,380 Climbing Cleveland Center
12:34PM 41.0244 -81.7364 134° Southeast 476 548 41,500 1,380 Climbing Cleveland Center
12:35PM 40.9358 -81.6192 135° Southeast 464 534 42,900 1,380 Climbing Cleveland Center
12:36PM 40.8431 -81.4969 135° Southeast 446 513 44,300 1,020 Climbing Cleveland Center
12:37PM 40.7606 -81.3892 135° Southeast 424 488 45,000 300 Climbing Cleveland Center
12:38PM 40.6736 -81.2783 136° Southeast 424 488 45,000  Level Cleveland Center
12:39PM 40.6075 -81.1903 135° Southeast 424 488 45,000  Level Cleveland Center
12:40PM 40.5061 -81.0528 134° Southeast 423 487 45,000  Level Cleveland Center
12:41PM 40.4147 -80.9403 137° Southeast 440 506 45,000  Level Cleveland Center
12:42PM 40.3253 -80.8228 135° Southeast 445 512 45,000  Level Cleveland Center
12:43PM 40.2422 -80.7164 136° Southeast 453 521 45,000 -240 Level Cleveland Center
12:44PM 40.1525 -80.6019 136° Southeast 448 516 44,600 -480 Descending Cleveland Center
12:45PM 40.0589 -80.4856 136° Southeast 448 516 44,100 -600 Descending Cleveland Center
12:46PM 39.9647 -80.3692 137° Southeast 453 521 43,400 -900 Descending Cleveland Center
12:47PM 39.8708 -80.2503 136° Southeast 458 527 42,400 -1,740 Descending Cleveland Center
12:48PM 39.7764 -80.1319 136° Southeast 463 533 40,000 -3,060 Descending Cleveland Center
12:51PM 39.5733 -79.8642 134° Southeast 473 544 32,900 -3,360 Descending Washington Center
12:52PM 39.5289 -79.7056 110° East 473 544 29,600 -3,060 Descending Washington Center
12:53PM 39.5011 -79.5400 102° East 446 513 27,000 -1,380 Descending Washington Center
12:54PM 39.4711 -79.3661 103° East 469 540 26,900 -540 Descending Washington Center
12:55PM 39.4408 -79.2061 104° East 497 572 26,000 -1,740 Descending Washington Center
12:56PM 39.4103 -79.0325 103° East 497 572 23,400 -2,700 Descending Washington Center
12:57PM 39.3797 -78.8592 103° East 491 565 20,600 -2,520 Descending Washington Center
12:58PM 39.3486 -78.6969 104° East 484 557 18,400 -1,980 Descending Washington Center
12:59PM 39.3192 -78.5428 104° East 460 529 16,700 -2,580 Descending Washington Center
01:00PM 39.2933 -78.3967 103° East 437 503 13,400 -2,760 Descending Washington Center
01:01PM 39.2400 -78.2767 120° Southeast 411 473 11,200 -1,560 Descending Washington Center
01:02PM 39.1817 -78.1703 125° Southeast 377 434 10,300 -1,320 Descending Washington Center
01:03PM 39.1336 -78.0775 124° Southeast 353 406 8,600 -1,500 Descending Washington Center
01:04PM 39.0817 -77.9769 124° Southeast 325 374 7,400 -1,140 Descending Washington Center
01:05PM 39.0333 -77.8897 125° Southeast 312 359 6,400 -720 Descending Washington Center
01:06PM 38.9950 -77.8136 123° Southeast 288 331 6,000 -240 Descending Washington Center
01:07PM 38.9594 -77.7086 114° Southeast 288 331 6,000  Level Washington Center
01:08PM 38.9756 -77.6183 77° East 284 327 6,000 -480 Level Washington Center
01:08PM 39.0333 -77.5667 35° Northeast 288 331 5,200 -1,200 Descending Potomac TRACON
01:09PM 39.1000 -77.5500 11° North 268 308 4,000 -660 Descending Potomac TRACON
01:10PM 39.1000 -77.4667 90° East 254 292 3,900 -660 Descending Potomac TRACON
01:11PM 39.0500 -77.4500 165° South 207 238 2,700 -1,440 Descending Potomac TRACON
01:12PM 39.0000 -77.4667 195° South 167 192 1,100 -1,620 Descending Potomac TRACON
01:14PM 38.9474 -77.4599 165° South  Level Estimated
01:21PM 38.9474 -77.4599 165° South  Level Estimated
01:22PM 38.9474 -77.4599 165° South  Level Estimated
01:23PM 38.9474 -77.4599 165° South  Level Estimated
01:24PM 38.9474 -77.4599 165° South  Level Estimated